TimeEDT,TemperatureF,Dew PointF,Humidity,Sea Level PressureIn,VisibilityMPH,Wind Direction,Wind SpeedMPH,Gust SpeedMPH,PrecipitationIn,Events,Conditions,WindDirDegrees,DateUTC
12:15 AM,49.1,41.0,74,30.19,10.0,SSE,5.8,-,N/A,,Overcast,160,2013-10-30 04:15:00
12:35 AM,49.1,41.4,75,30.19,10.0,SSE,4.6,-,N/A,,Overcast,150,2013-10-30 04:35:00
12:55 AM,48.7,41.9,77,30.19,7.0,SSE,4.6,-,N/A,Rain,Rain,160,2013-10-30 04:55:00
1:15 AM,48.2,42.8,82,30.18,7.0,SSE,3.5,-,N/A,Rain,Light Rain,160,2013-10-30 05:15:00
1:35 AM,48.0,43.3,84,30.18,7.0,SSE,4.6,-,0.01,Rain,Light Rain,160,2013-10-30 05:35:00
1:55 AM,47.8,43.7,86,30.17,7.0,South,5.8,-,0.01,,Overcast,170,2013-10-30 05:55:00
2:15 AM,48.4,43.9,84,30.17,7.0,SSE,4.6,-,N/A,,Overcast,160,2013-10-30 06:15:00
2:35 AM,48.7,43.9,83,30.16,10.0,SSE,4.6,-,N/A,,Overcast,150,2013-10-30 06:35:00
2:55 AM,48.7,43.7,83,30.16,7.0,SSE,3.5,-,N/A,,Overcast,150,2013-10-30 06:55:00
3:15 AM,48.4,43.9,84,30.15,10.0,South,4.6,-,N/A,,Overcast,170,2013-10-30 07:15:00
3:35 AM,48.6,44.2,85,30.14,7.0,South,8.1,-,N/A,,Overcast,170,2013-10-30 07:35:00
3:55 AM,48.6,45.9,90,30.13,7.0,South,8.1,-,N/A,,Overcast,180,2013-10-30 07:55:00
4:15 AM,48.6,46.9,94,30.13,5.0,South,6.9,-,N/A,,Overcast,170,2013-10-30 08:15:00
4:35 AM,48.4,46.9,95,30.13,4.0,South,4.6,-,N/A,,Scattered Clouds,180,2013-10-30 08:35:00
4:55 AM,47.7,46.6,96,30.13,4.0,SSE,3.5,-,N/A,,Mostly Cloudy,160,2013-10-30 08:55:00
5:15 AM,47.3,46.4,97,30.14,2.0,ENE,3.5,-,N/A,,Overcast,70,2013-10-30 09:15:00
5:35 AM,46.4,45.7,97,30.14,1.8,NNE,3.5,-,N/A,,Overcast,30,2013-10-30 09:35:00
5:55 AM,46.9,46.4,98,30.14,2.0,NE,3.5,-,N/A,,Overcast,50,2013-10-30 09:55:00
6:15 AM,47.7,47.1,98,30.15,2.5,ESE,3.5,-,N/A,,Overcast,110,2013-10-30 10:15:00
6:35 AM,48.4,48.0,99,30.14,2.5,Calm,Calm,-,N/A,,Overcast,0,2013-10-30 10:35:00
6:55 AM,48.6,48.2,99,30.14,2.5,Calm,Calm,-,N/A,,Overcast,0,2013-10-30 10:55:00
7:15 AM,48.6,48.2,99,30.14,2.5,Calm,Calm,-,N/A,,Overcast,0,2013-10-30 11:15:00
7:35 AM,48.6,48.2,99,30.14,2.5,East,3.5,-,N/A,,Overcast,90,2013-10-30 11:35:00
7:55 AM,49.1,48.6,98,30.14,2.5,East,4.6,-,N/A,,Overcast,90,2013-10-30 11:55:00
8:15 AM,49.3,48.7,98,30.14,1.8,East,3.5,-,N/A,,Overcast,100,2013-10-30 12:15:00
8:35 AM,49.8,49.1,97,30.14,1.8,East,3.5,-,N/A,,Overcast,90,2013-10-30 12:35:00
8:55 AM,50.0,49.5,98,30.16,2.0,Calm,Calm,-,N/A,,Overcast,0,2013-10-30 12:55:00
9:15 AM,50.0,49.3,97,30.16,2.0,ENE,3.5,-,N/A,,Overcast,70,2013-10-30 13:15:00
9:35 AM,50.0,49.3,97,30.16,2.0,East,5.8,-,N/A,,Overcast,90,2013-10-30 13:35:00
9:55 AM,50.2,49.5,97,30.16,2.0,East,4.6,-,N/A,,Overcast,100,2013-10-30 13:55:00
10:15 AM,50.9,50.2,97,30.16,2.5,ESE,5.8,-,N/A,,Overcast,110,2013-10-30 14:15:00
10:35 AM,51.3,50.2,96,30.16,3.0,East,5.8,-,N/A,,Overcast,100,2013-10-30 14:35:00
10:55 AM,52.0,50.7,95,30.15,3.0,SE,6.9,-,N/A,,Overcast,130,2013-10-30 14:55:00
11:15 AM,52.9,51.4,95,30.16,3.0,SE,5.8,-,N/A,,Overcast,140,2013-10-30 15:15:00
11:35 AM,54.0,52.5,95,30.15,4.0,SE,6.9,-,N/A,,Overcast,130,2013-10-30 15:35:00
11:55 AM,54.9,53.1,94,30.15,4.0,SSE,5.8,-,N/A,,Overcast,160,2013-10-30 15:55:00
12:15 PM,55.2,53.4,94,30.15,4.0,SSE,6.9,-,N/A,,Overcast,150,2013-10-30 16:15:00
12:35 PM,55.6,53.8,94,30.15,4.0,SSE,6.9,-,N/A,,Overcast,160,2013-10-30 16:35:00
12:55 PM,56.3,54.1,92,30.12,4.0,SE,8.1,-,N/A,,Overcast,130,2013-10-30 16:55:00
1:15 PM,57.4,54.7,91,30.11,5.0,SSE,6.9,-,N/A,,Overcast,150,2013-10-30 17:15:00
1:35 PM,57.9,55.2,91,30.10,7.0,SE,8.1,-,N/A,,Overcast,140,2013-10-30 17:35:00
1:55 PM,58.6,55.4,89,30.09,5.0,SE,8.1,-,N/A,,Overcast,130,2013-10-30 17:55:00
2:15 PM,59.2,55.6,88,30.08,7.0,SE,8.1,-,N/A,,Overcast,140,2013-10-30 18:15:00
2:35 PM,59.9,55.8,86,30.07,10.0,SSE,4.6,-,N/A,,Overcast,150,2013-10-30 18:35:00
2:55 PM,60.1,55.8,86,30.08,5.0,SE,6.9,-,N/A,,Overcast,140,2013-10-30 18:55:00
3:15 PM,60.4,55.9,85,30.07,7.0,SSE,8.1,-,N/A,,Overcast,160,2013-10-30 19:15:00
3:35 PM,61.0,56.3,85,30.05,7.0,SE,9.2,-,N/A,,Overcast,140,2013-10-30 19:35:00
3:55 PM,61.0,57.0,87,30.06,10.0,South,8.1,-,N/A,,Overcast,170,2013-10-30 19:55:00
4:15 PM,61.5,57.0,85,30.04,10.0,SSE,11.5,-,N/A,,Overcast,150,2013-10-30 20:15:00
4:35 PM,61.2,57.2,87,30.03,7.0,SSE,8.1,-,N/A,,Overcast,160,2013-10-30 20:35:00
4:55 PM,61.3,57.4,87,30.05,10.0,South,9.2,-,N/A,,Overcast,170,2013-10-30 20:55:00
5:15 PM,61.5,57.6,87,30.03,7.0,SSE,9.2,-,N/A,,Overcast,150,2013-10-30 21:15:00
5:35 PM,61.0,57.7,89,30.02,7.0,SSE,10.4,-,N/A,,Overcast,160,2013-10-30 21:35:00
5:55 PM,60.4,57.9,91,30.02,5.0,SSE,11.5,-,N/A,,Overcast,150,2013-10-30 21:55:00
6:15 PM,59.9,58.1,94,30.02,4.0,SSE,8.1,-,N/A,,Overcast,160,2013-10-30 22:15:00
6:35 PM,59.5,58.1,95,30.02,2.5,SSE,11.5,-,N/A,,Overcast,160,2013-10-30 22:35:00
6:55 PM,59.2,58.1,96,30.02,2.0,SSE,8.1,-,N/A,,Overcast,160,2013-10-30 22:55:00
7:15 PM,59.0,58.3,97,30.02,2.5,SSE,8.1,-,N/A,,Overcast,160,2013-10-30 23:15:00
8:55 PM,59.5,59.2,99,29.99,2.0,SSE,8.1,-,N/A,Rain,Light Rain,160,2013-10-31 00:55:00
9:15 PM,60.1,59.9,99,29.98,2.5,South,9.2,-,N/A,,Overcast,170,2013-10-31 01:15:00
9:35 PM,60.4,60.3,99,29.97,2.5,South,10.4,-,N/A,,Overcast,170,2013-10-31 01:35:00
9:55 PM,60.8,60.6,99,29.97,2.5,South,10.4,-,N/A,,Overcast,180,2013-10-31 01:55:00
10:15 PM,61.3,61.0,99,29.97,3.0,South,11.5,-,N/A,,Overcast,180,2013-10-31 02:15:00
10:35 PM,61.7,61.3,99,29.95,3.0,South,11.5,-,N/A,,Overcast,170,2013-10-31 02:35:00
10:55 PM,61.9,61.3,98,29.96,3.0,South,11.5,-,N/A,,Overcast,190,2013-10-31 02:55:00
11:15 PM,62.1,61.5,98,29.97,4.0,SSW,10.4,-,N/A,,Overcast,210,2013-10-31 03:15:00
11:35 PM,62.6,61.7,97,29.96,4.0,SSW,12.7,18.4,0.01,Rain,Light Rain,200,2013-10-31 03:35:00
11:55 PM,62.6,61.7,97,29.96,4.0,SSW,15.0,-,0.01,Rain,Light Rain,200,2013-10-31 03:55:00